GW2923 Weather Reports


Display with metric or nautical units.
time (UTC)temp
F
wind
direction
speed
MPH
gust
MPH
rain 1hr
in
rain 24hr
in
rain mn
in
humidity
%
barometer
mb
20260906163529 47 339 1.0 4.0 0.00 0.00 0.00 70 1013.1
20260906163057 48 325 1.0 4.0 0.00 0.00 0.00 67 1013.0
20260906162529 48 0 1.0 4.0 0.00 0.00 0.00 67 1013.0
20260906162029 48 0 1.0 7.0 0.00 0.00 0.00 68 1013.0
20260906161549 48 326 2.0 7.0 0.00 0.00 0.00 65 1012.9
20260906161127 48 335 1.0 6.0 0.00 0.00 0.00 65 1012.9
20260906160530 48 338 2.0 12.0 0.00 0.00 0.00 65 1012.8
20260906160046 49 349 2.0 12.0 0.00 0.00 0.00 64 1012.8
20260906155530 49 336 3.0 12.0 0.00 0.00 0.00 63 1012.8
20260906155030 49 357 3.0 11.0 0.00 0.00 0.00 63 1012.7
20260906154546 49 326 2.0 13.0 0.00 0.00 0.00 63 1012.8
20260906154030 49 344 6.0 13.0 0.00 0.00 0.00 62 1012.7
20260906153530 50 37 4.0 12.0 0.00 0.00 0.00 63 1012.6
20260906153112 50 355 5.0 15.0 0.00 0.00 0.00 62 1012.6
20260906152531 50 313 4.0 15.0 0.00 0.00 0.00 65 1012.4
20260906152031 50 26 5.0 22.0 0.00 0.00 0.00 64 1012.4
20260906151557 50 30 7.0 22.0 0.00 0.00 0.00 64 1012.4
20260906151030 51 309 2.0 13.0 0.00 0.00 0.00 64 1012.4
20260906150530 51 286 4.0 13.0 0.00 0.00 0.00 64 1012.3
20260906150046 51 244 6.0 13.0 0.00 0.00 0.00 64 1012.3
20260906145530 51 325 3.0 12.0 0.00 0.00 0.00 66 1012.2
20260906145030 51 9 5.0 12.0 0.00 0.00 0.00 65 1012.2
20260906144555 51 274 3.0 10.0 0.00 0.00 0.00 65 1012.1
20260906144029 51 4 5.0 14.0 0.00 0.00 0.00 64 1012.0
20260906143531 51 295 5.0 14.0 0.00 0.00 0.00 62 1012.0
20260906143051 52 50 6.0 13.0 0.00 0.00 0.00 63 1011.9
20260906142529 52 318 3.0 15.0 0.00 0.00 0.00 63 1012.0
20260906142033 52 19 7.0 15.0 0.00 0.00 0.00 62 1012.0
20260906141552 52 342 4.0 14.0 0.00 0.00 0.00 63 1012.0
20260906141030 52 55 3.0 14.0 0.00 0.00 0.00 63 1011.8
20260906140530 52 14 7.0 14.0 0.00 0.00 0.00 62 1011.8
20260906140047 52 14 6.0 15.0 0.00 0.00 0.00 64 1011.8
20260906135530 52 326 5.0 15.0 0.00 0.00 0.00 63 1011.8
20260906135031 52 14 6.0 15.0 0.00 0.00 0.00 65 1011.7
20260906134605 53 39 3.0 15.0 0.00 0.00 0.00 65 1011.7
20260906134030 53 311 5.0 19.0 0.00 0.00 0.00 63 1011.7
20260906133533 53 24 7.0 19.0 0.00 0.00 0.00 61 1011.6
20260906133056 53 26 3.0 13.0 0.00 0.00 0.00 66 1011.5
20260906132530 53 334 6.0 14.0 0.00 0.00 0.00 62 1011.5
20260906132031 53 355 7.0 14.0 0.00 0.00 0.00 63 1011.4
20260906131549 53 303 6.0 16.0 0.00 0.00 0.00 67 1011.3
20260906131030 53 14 5.0 16.0 0.00 0.00 0.00 61 1011.4
20260906130530 53 20 6.0 14.0 0.00 0.00 0.00 62 1011.3
20260906130049 53 336 5.0 12.0 0.00 0.00 0.00 59 1011.2
20260906125530 54 245 2.0 11.0 0.00 0.00 0.00 61 1011.2
20260906125031 53 9 5.0 11.0 0.00 0.00 0.00 62 1011.1
20260906124544 53 324 5.0 18.0 0.00 0.00 0.00 65 1011.1
20260906124031 53 333 6.0 18.0 0.00 0.00 0.00 62 1011.0
20260906123533 53 290 6.0 18.0 0.00 0.00 0.00 61 1011.0
20260906123054 53 321 7.0 18.0 0.00 0.00 0.00 61 1011.0
20260906122530 53 39 7.0 19.0 0.00 0.00 0.00 60 1010.9
20260906122030 53 357 8.0 19.0 0.00 0.00 0.00 60 1010.9
20260906121552 53 324 7.0 15.0 0.00 0.00 0.00 60 1010.9
20260906121030 53 251 6.0 15.0 0.00 0.00 0.00 60 1010.9
20260906120533 53 338 8.0 17.0 0.00 0.00 0.00 62 1010.9
20260906120057 54 350 6.0 17.0 0.00 0.00 0.00 63 1010.7
20260906115530 54 345 5.0 14.0 0.00 0.00 0.00 61 1010.6
20260906115034 53 353 6.0 14.0 0.00 0.00 0.00 60 1010.7
20260906114543 54 321 5.0 13.0 0.00 0.00 0.00 63 1010.6
20260906114031 54 316 5.0 13.0 0.00 0.00 0.00 57 1010.6
20260906113532 53 33 6.0 14.0 0.00 0.00 0.00 64 1010.4
20260906113045 53 4 4.0 14.0 0.00 0.00 0.00 62 1010.5
20260906112534 53 349 6.0 14.0 0.00 0.00 0.00 61 1010.4
20260906112032 53 343 4.0 14.0 0.00 0.00 0.00 63 1010.4
20260906111551 53 358 4.0 18.0 0.00 0.00 0.00 64 1010.3
20260906111031 53 306 6.0 18.0 0.00 0.00 0.00 64 1010.2
20260906110531 53 321 8.0 17.0 0.00 0.00 0.00 64 1010.1
20260906110055 53 351 8.0 17.0 0.00 0.00 0.00 63 1010.1
20260906105530 53 282 7.0 15.0 0.00 0.00 0.00 63 1010.0
20260906105032 54 293 2.0 14.0 0.00 0.00 0.00 66 1009.9
20260906104545 53 357 5.0 14.0 0.00 0.00 0.00 67 1009.8
20260906104030 53 4 4.0 17.0 0.00 0.00 0.00 65 1009.6
20260906103534 53 255 5.0 17.0 0.00 0.00 0.00 63 1009.6
20260906103058 53 334 6.0 16.0 0.00 0.00 0.00 66 1009.6
20260906102532 53 258 3.0 16.0 0.00 0.00 0.00 66 1009.6
20260906102031 52 324 6.0 15.0 0.00 0.00 0.00 68 1009.6
20260906101544 53 306 4.0 15.0 0.00 0.00 0.00 68 1009.4
20260906101029 53 312 6.0 15.0 0.00 0.00 0.00 68 1009.4
20260906100534 52 283 8.0 16.0 0.00 0.00 0.00 67 1009.3
20260906100051 52 21 7.0 16.0 0.00 0.00 0.00 66 1009.3
20260906095530 53 0 4.0 14.0 0.00 0.00 0.00 66 1009.2
20260906095030 53 22 4.0 14.0 0.00 0.00 0.00 71 1009.2
20260906094544 52 311 5.0 14.0 0.00 0.00 0.00 69 1009.2
20260906094030 52 350 8.0 14.0 0.00 0.00 0.00 66 1009.1
20260906093534 52 49 6.0 12.0 0.00 0.00 0.00 68 1009.1
20260906093046 52 318 6.0 14.0 0.00 0.00 0.00 67 1009.0
20260906092530 51 306 4.0 14.0 0.00 0.00 0.00 68 1009.1
20260906092034 52 334 6.0 14.0 0.00 0.00 0.00 70 1009.1
20260906091550 51 320 5.0 12.0 0.00 0.00 0.00 71 1009.0
20260906091032 51 266 5.0 12.0 0.00 0.00 0.00 70 1009.0
20260906090533 52 276 3.0 15.0 0.00 0.00 0.00 69 1009.0
20260906090106 52 311 5.0 15.0 0.00 0.00 0.00 69 1008.9
20260906085530 51 345 6.0 15.0 0.00 0.00 0.00 70 1008.8
20260906085031 50 349 4.0 14.0 0.00 0.00 0.00 75 1008.8
20260906084545 51 56 5.0 16.0 0.00 0.00 0.00 72 1008.7
20260906084030 51 4 6.0 19.0 0.00 0.00 0.00 75 1008.7
20260906083531 51 328 8.0 19.0 0.00 0.00 0.00 74 1008.7
20260906083043 51 31 7.0 13.0 0.00 0.00 0.00 74 1008.6
20260906082533 51 272 5.0 14.0 0.00 0.00 0.00 75 1008.7
20260906082033 50 216 5.0 16.0 0.00 0.00 0.00 74 1008.6
20260906081557 51 349 7.0 16.0 0.00 0.00 0.00 74 1008.5
20260906081029 50 282 1.0 12.0 0.00 0.00 0.00 77 1008.6
20260906080532 49 4 4.0 15.0 0.00 0.00 0.00 77 1008.5
20260906080106 49 321 6.0 15.0 0.00 0.00 0.00 76 1008.5
20260906075532 50 302 3.0 15.0 0.00 0.00 0.00 78 1008.5
20260906075032 50 9 8.0 15.0 0.00 0.00 0.00 74 1008.4
20260906074603 50 14 7.0 15.0 0.00 0.00 0.00 76 1008.3
20260906074030 49 359 4.0 16.0 0.00 0.00 0.00 78 1008.3
20260906073530 49 347 4.0 16.0 0.00 0.00 0.00 76 1008.2
20260906073057 49 239 6.0 15.0 0.00 0.00 0.00 77 1008.3
20260906072530 49 316 4.0 15.0 0.00 0.00 0.00 79 1008.2
20260906072030 48 302 7.0 15.0 0.00 0.00 0.00 80 1008.2
20260906071553 48 19 6.0 25.0 0.00 0.00 0.00 81 1008.0
20260906071033 48 9 6.0 25.0 0.00 0.00 0.00 81 1008.0
20260906070533 48 345 3.0 12.0 0.00 0.00 0.00 81 1007.9
20260906070052 48 351 3.0 9.0 0.00 0.00 0.00 85 1007.8
20260906065532 47 339 1.0 11.0 0.00 0.00 0.00 86 1007.8
20260906065031 47 327 2.0 12.0 0.00 0.00 0.00 86 1007.8
20260906064548 47 288 3.0 12.0 0.00 0.00 0.00 86 1007.6
20260906064031 48 35 4.0 12.0 0.00 0.00 0.00 85 1007.5
20260906063530 48 251 3.0 12.0 0.00 0.00 0.00 85 1007.5
20260906063048 48 299 4.0 11.0 0.00 0.00 0.00 86 1007.5
20260906062530 47 294 4.0 11.0 0.00 0.00 0.00 88 1007.4
20260906062030 47 309 2.0 9.0 0.00 0.00 0.00 87 1007.4
20260906061546 46 329 3.0 9.0 0.00 0.00 0.00 88 1007.3
20260906061029 46 274 2.0 8.0 0.00 0.00 0.00 89 1007.3
20260906060533 46 276 2.0 9.0 0.00 0.00 0.00 90 1007.3
20260906060052 45 327 2.0 9.0 0.00 0.00 0.00 91 1007.2
20260906055532 45 275 3.0 8.0 0.00 0.00 0.00 92 1007.1
20260906055030 44 341 1.0 7.0 0.00 0.00 0.00 94 1007.0
20260906054550 44 342 2.0 7.0 0.00 0.00 0.00 95 1007.0
20260906054030 43 309 2.0 7.0 0.00 0.00 0.00 96 1006.9
20260906053531 42 258 1.0 6.0 0.00 0.00 0.00 96 1006.9
20260906053043 42 284 1.0 6.0 0.00 0.00 0.00 96 1006.7
20260906052535 42 286 2.0 6.0 0.00 0.00 0.00 96 1006.7
20260906052031 42 236 1.0 6.0 0.00 0.00 0.00 96 1006.7
20260906051600 41 292 2.0 6.0 0.00 0.00 0.00 96 1006.6
20260906051033 41 278 1.0 3.0 0.00 0.00 0.00 96 1006.7
20260906050530 40 0 0.0 0.0 0.00 0.00 0.00 96 1006.5
20260906045529 39 0 0.0 0.0 0.00 0.00 0.00 95 1006.4
20260906045030 38 0 0.0 0.0 0.00 0.00 0.00 95 1006.4
20260906044551 37 0 0.0 0.0 0.00 0.00 0.00 95 1006.4
20260906044031 37 0 0.0 0.0 0.00 0.00 0.00 94 1006.3
20260906043534 37 0 0.0 0.0 0.00 0.00 0.00 94 1006.2
20260906043052 37 0 0.0 0.0 0.00 0.00 0.00 94 1006.2
20260906042529 37 0 0.0 0.0 0.00 0.00 0.00 94 1006.1
20260906042030 37 0 0.0 0.0 0.00 0.00 0.00 94 1006.0
20260906041544 37 0 0.0 0.0 0.00 0.00 0.00 94 1006.0
20260906041030 37 0 0.0 0.0 0.00 0.00 0.00 94 1006.0
20260906040529 37 0 0.0 0.0 0.00 0.00 0.00 94 1006.0
20260906040053 37 0 0.0 0.0 0.00 0.00 0.00 94 1006.0
20260906035531 37 0 0.0 0.0 0.00 0.00 0.00 94 1005.9
20260906035029 37 0 0.0 0.0 0.00 0.00 0.00 94 1005.8
20260906034606 38 0 0.0 0.0 0.00 0.00 0.00 94 1005.7
20260906034031 38 0 0.0 0.0 0.00 0.00 0.00 94 1005.7
20260906033531 38 0 0.0 0.0 0.00 0.00 0.00 94 1005.6
20260906033045 38 0 0.0 0.0 0.00 0.00 0.00 94 1005.6
20260906032529 38 0 0.0 0.0 0.00 0.00 0.00 94 1005.6
20260906032030 39 0 0.0 0.0 0.00 0.00 0.00 94 1005.6
20260906031552 39 0 0.0 0.0 0.00 0.00 0.00 94 1005.6
20260906031029 39 0 0.0 0.0 0.00 0.00 0.00 94 1005.5
20260906030533 39 0 0.0 0.0 0.00 0.00 0.00 95 1005.3
20260906030050 39 0 0.0 0.0 0.00 0.00 0.00 95 1005.3
20260906025530 40 0 0.0 0.0 0.00 0.00 0.00 95 1005.2
20260906025030 40 0 0.0 0.0 0.00 0.00 0.00 95 1005.2
20260906024554 40 0 0.0 0.0 0.00 0.00 0.00 95 1005.1
20260906024030 40 0 0.0 0.0 0.00 0.00 0.00 95 1005.1
20260906023530 40 0 0.0 0.0 0.00 0.00 0.00 95 1005.1
20260906023056 40 0 0.0 0.0 0.00 0.00 0.00 95 1005.0
20260906022532 41 0 0.0 0.0 0.00 0.00 0.00 95 1005.0
20260906022030 41 0 0.0 0.0 0.00 0.00 0.00 95 1004.9
20260906021551 41 0 0.0 0.0 0.00 0.00 0.00 95 1004.9
20260906021029 41 0 0.0 0.0 0.00 0.00 0.00 95 1004.9
20260906020529 41 0 0.0 0.0 0.00 0.00 0.00 95 1004.8
20260906020058 42 0 0.0 0.0 0.00 0.00 0.00 95 1004.8
20260906015532 42 0 0.0 0.0 0.00 0.00 0.00 95 1004.8
20260906015031 42 0 0.0 0.0 0.00 0.00 0.00 95 1004.8
20260906014544 42 0 0.0 0.0 0.00 0.00 0.00 95 1004.7
20260906014032 43 0 0.0 0.0 0.00 0.00 0.00 95 1004.7
20260906013534 43 0 0.0 0.0 0.00 0.00 0.00 95 1004.6
20260906013104 43 0 0.0 0.0 0.00 0.00 0.00 95 1004.6
20260906012532 43 0 0.0 0.0 0.00 0.00 0.00 95 1004.5
20260906012029 43 0 0.0 0.0 0.00 0.00 0.00 95 1004.5
20260906011553 43 0 0.0 0.0 0.00 0.00 0.00 95 1004.5
20260906011031 43 0 0.0 0.0 0.00 0.00 0.00 95 1004.5
20260906010529 43 0 0.0 0.0 0.00 0.00 0.00 95 1004.4
20260906010049 43 0 0.0 0.0 0.00 0.00 0.00 95 1004.3
20260906005531 43 0 0.0 0.0 0.00 0.00 0.00 95 1004.3
20260906005033 43 0 0.0 0.0 0.00 0.00 0.00 95 1004.2
20260906004554 43 0 0.0 0.0 0.00 0.00 0.00 95 1004.3
20260906004032 44 0 0.0 0.0 0.00 0.00 0.00 95 1004.3
20260906003532 44 0 0.0 0.0 0.00 0.00 0.00 95 1004.1
20260906003050 44 0 0.0 0.0 0.00 0.00 0.00 95 1004.1
20260906002533 44 0 0.0 0.0 0.00 0.00 0.00 96 1004.2
20260906002034 44 0 0.0 0.0 0.00 0.00 0.00 96 1004.1
20260906001548 44 0 0.0 0.0 0.00 0.00 0.00 96 1004.0
20260906001035 44 0 0.0 0.0 0.00 0.00 0.00 96 1003.9
20260906000532 43 0 0.0 2.0 0.00 0.00 0.00 96 1004.0
20260906000052 43 0 0.0 3.0 0.00 0.00 0.00 96 1004.0
20260905235533 43 0 0.0 3.0 0.00 0.00 0.00 96 1004.1
20260905235033 43 0 0.0 2.0 0.00 0.00 0.00 96 1004.0
20260905234618 42 335 0.0 2.0 0.00 0.00 0.00 96 1004.1
20260905234032 42 295 0.0 4.0 0.00 0.00 0.00 96 1004.0
20260905233534 42 295 1.0 4.0 0.00 0.00 0.00 96 1004.0
20260905233050 42 255 0.0 3.0 0.00 0.00 0.00 95 1004.0
20260905232532 42 0 0.0 0.0 0.00 0.00 0.00 95 1004.0
20260905232032 42 0 0.0 0.0 0.00 0.00 0.00 95 1003.9
20260905231548 42 0 0.0 0.0 0.00 0.00 0.00 95 1003.9
20260905231033 42 0 0.0 0.0 0.00 0.00 0.00 95 1003.9
20260905230533 42 0 0.0 0.0 0.00 0.00 0.00 95 1003.8
20260905230045 41 0 0.0 0.0 0.00 0.00 0.00 95 1003.8
20260905225533 41 0 0.0 0.0 0.00 0.00 0.00 95 1003.7
20260905225033 41 0 0.0 0.0 0.00 0.00 0.00 95 1003.7
20260905224552 41 0 0.0 0.0 0.00 0.00 0.00 95 1003.7
20260905224034 41 0 0.0 0.0 0.00 0.00 0.00 95 1003.7
20260905223532 41 0 0.0 0.0 0.00 0.00 0.00 95 1003.8
20260905223052 41 0 0.0 0.0 0.00 0.00 0.00 95 1003.7
20260905222534 41 0 0.0 0.0 0.00 0.00 0.00 95 1003.7
20260905222032 41 0 0.0 0.0 0.00 0.00 0.00 95 1003.6
20260905221550 41 0 0.0 1.0 0.00 0.00 0.00 95 1003.6
20260905221035 42 0 0.0 2.0 0.00 0.00 0.00 95 1003.5
20260905220533 42 0 0.0 2.0 0.00 0.00 0.00 95 1003.5
20260905215534 43 255 0.0 2.0 0.00 0.00 0.00 95 1003.6
20260905215034 43 255 0.0 2.0 0.00 0.00 0.00 95 1003.5
20260905214549 43 0 0.0 3.0 0.00 0.00 0.00 95 1003.5
20260905214033 43 249 0.0 3.0 0.00 0.00 0.00 95 1003.4
20260905213530 44 278 1.0 3.0 0.00 0.00 0.00 95 1003.3
20260905213047 44 272 0.0 4.0 0.00 0.00 0.00 95 1003.2
20260905212530 44 272 2.0 4.0 0.00 0.00 0.00 95 1003.2
20260905212033 44 276 1.0 4.0 0.00 0.00 0.00 95 1003.2
20260905211542 44 0 0.0 0.0 0.00 0.00 0.00 95 1003.2
20260905211031 44 0 0.0 0.0 0.00 0.00 0.00 95 1003.1
20260905210529 44 0 0.0 0.0 0.00 0.00 0.00 95 1003.0
20260905210101 44 0 0.0 0.0 0.00 0.00 0.00 95 1003.0
20260905205529 44 0 0.0 0.0 0.00 0.00 0.00 95 1003.0
20260905205030 44 0 0.0 0.0 0.00 0.00 0.00 95 1003.0
20260905204554 44 0 0.0 0.0 0.00 0.00 0.00 95 1002.8
20260905204029 44 0 0.0 0.0 0.00 0.00 0.00 95 1002.8
20260905203531 44 0 0.0 0.0 0.00 0.00 0.00 95 1002.7
20260905203102 44 0 0.0 0.0 0.00 0.00 0.00 95 1002.7
20260905202533 44 0 0.0 0.0 0.00 0.00 0.00 95 1002.6
20260905202033 44 0 0.0 0.0 0.00 0.00 0.00 95 1002.6
20260905201552 44 0 0.0 2.0 0.00 0.00 0.00 95 1002.6
20260905201030 44 0 0.0 2.0 0.00 0.00 0.00 95 1002.5
20260905200530 43 4 0.0 3.0 0.00 0.00 0.00 95 1002.5
20260905200051 43 0 0.0 3.0 0.00 0.00 0.00 95 1002.4
20260905195532 43 4 0.0 3.0 0.00 0.00 0.00 95 1002.3
20260905195034 42 360 1.0 3.0 0.00 0.00 0.00 95 1002.2
20260905194547 42 0 0.0 3.0 0.00 0.00 0.00 95 1002.2
20260905194030 42 0 0.0 3.0 0.00 0.00 0.00 95 1002.1
20260905193530 42 324 0.0 3.0 0.00 0.00 0.00 94 1002.1
20260905193043 41 22 1.0 3.0 0.00 0.00 0.00 94 1002.2
20260905192533 41 330 0.0 1.0 0.00 0.00 0.00 94 1002.2
20260905192033 41 0 0.0 2.0 0.00 0.00 0.00 94 1002.1
20260905191552 42 0 0.0 2.0 0.00 0.00 0.00 94 1002.1
20260905191033 42 319 0.0 2.0 0.00 0.00 0.00 94 1002.1
20260905190529 42 0 0.0 1.0 0.00 0.00 0.00 93 1002.0
20260905190049 42 0 0.0 1.0 0.00 0.00 0.00 94 1002.0
20260905185533 42 0 0.0 2.0 0.00 0.00 0.00 94 1001.9
20260905185035 43 0 0.0 3.0 0.00 0.00 0.00 93 1001.9
20260905184557 43 342 0.0 3.0 0.00 0.00 0.00 93 1001.8
20260905184031 43 0 1.0 3.0 0.00 0.00 0.00 93 1001.8
20260905183529 43 352 1.0 3.0 0.00 0.00 0.00 93 1001.6
20260905183055 43 9 0.0 2.0 0.00 0.00 0.00 93 1001.6
20260905182534 44 0 0.0 3.0 0.00 0.00 0.00 92 1001.5
20260905182030 44 315 0.0 3.0 0.00 0.00 0.00 92 1001.5
20260905181553 44 0 0.0 3.0 0.00 0.00 0.00 92 1001.5
20260905181029 44 0 0.0 3.0 0.00 0.00 0.00 91 1001.5
20260905180529 45 354 1.0 3.0 0.00 0.00 0.00 91 1001.4
20260905180049 45 351 0.0 4.0 0.00 0.00 0.00 90 1001.4
20260905175530 46 359 1.0 4.0 0.00 0.00 0.00 90 1001.3
20260905175030 46 347 1.0 5.0 0.00 0.00 0.00 90 1001.3
20260905174548 46 9 1.0 5.0 0.00 0.00 0.00 90 1001.3
20260905174031 46 35 1.0 6.0 0.00 0.00 0.00 89 1001.2
20260905173532 47 355 1.0 6.0 0.00 0.00 0.00 88 1001.2
20260905173052 47 26 1.0 6.0 0.00 0.00 0.00 88 1001.1
20260905172530 47 52 2.0 6.0 0.00 0.00 0.00 88 1001.1
20260905172030 47 44 2.0 8.0 0.00 0.00 0.00 87 1001.0
20260905171610 48 33 1.0 8.0 0.00 0.00 0.00 87 1000.9
20260905171034 48 4 3.0 9.0 0.00 0.00 0.00 87 1000.9
20260905170529 48 349 2.0 11.0 0.00 0.00 0.00 86 1000.9
20260905170101 49 4 4.0 12.0 0.00 0.00 0.00 86 1000.7
20260905165534 49 34 5.0 12.0 0.00 0.00 0.00 86 1000.7
20260905165031 49 24 4.0 11.0 0.00 0.00 0.00 85 1000.6
20260905164549 49 28 4.0 12.0 0.00 0.00 0.00 85 1000.7
20260905164030 49 20 2.0 13.0 0.00 0.00 0.00 85 1000.6